{"data":{"norad_id":61590,"epoch":"2026-09-21T21:46:30.427968Z","epoch_age_seconds":70490,"freshness":"FRESH","line1":"1 61590U 24187S   26264.90729662  .00026329  00000+0  78747-3 0  9991","line2":"2 61590  53.1582 229.4828 0002026 109.3222 250.8000 15.34406788109181","mean_motion":15.34406788,"eccentricity":0.0002026,"inclination_deg":53.1582,"raan_deg":229.4828,"arg_perigee_deg":109.3222,"mean_anomaly_deg":250.8,"bstar":0.00078747,"rev_number":10918,"period_min":93.847342912041,"perigee_km":461.29711476982,"apogee_km":464.06901506013,"semimajor_km":6840.820064915,"source":"CELESTRAK","updated_at":"2026-09-22T09:00:49.393710Z"}}